La rose des vents
Donnes mto: Semaine 20/12/04 - 26/12/04 (S 52)
Date Horaire Temp. E. Hum. E. P.atmo. Pluie Vent Direction Ensoleilleme Luminosit Solaire P. de rose Temp au vent
20/12/2004 00:00 7,7 C 78 % 1001,9 hPa 0,0 mm 0,8 km/h (0 Bft) N-NE 0,00 h 0 lux 0 W/m 4,2 C 7,7 C
20/12/2004 01:00 8,4 C 76 % 1001,8 hPa 0,0 mm 0,9 km/h (0 Bft) N-NE 0,00 h 0 lux 0 W/m 4,4 C 8,4 C
20/12/2004 02:00 8,4 C 76 % 1002,3 hPa 0,0 mm 1,5 km/h (1 Bft) N 0,00 h 0 lux 0 W/m 4,4 C 8,4 C
20/12/2004 03:00 8,5 C 76 % 1002,8 hPa 0,0 mm 1,6 km/h (1 Bft) N 0,00 h 0 lux 0 W/m 4,4 C 8,5 C
20/12/2004 04:00 8,9 C 74 % 1003,3 hPa 0,0 mm 3,3 km/h (1 Bft) NO 0,00 h 0 lux 0 W/m 4,5 C 8,6 C
20/12/2004 05:00 9,0 C 74 % 1003,8 hPa 0,0 mm 9,6 km/h (2 Bft) O-NO 0,00 h 0 lux 0 W/m 4,5 C 6,8 C
20/12/2004 06:00 9,0 C 72 % 1004,1 hPa 0,0 mm 2,0 km/h (1 Bft) O-NO 0,00 h 0 lux 0 W/m 4,2 C 9,0 C
20/12/2004 07:00 8,8 C 72 % 1005,4 hPa 0,0 mm 2,3 km/h (1 Bft) NO 0,00 h 48 lux 0 W/m 4,0 C 8,8 C
20/12/2004 08:00 9,1 C 71 % 1006,6 hPa 0,0 mm 4,7 km/h (1 Bft) O-NO 0,00 h 4,10 klux 28 W/m 4,1 C 9,1 C
20/12/2004 09:00 9,5 C 70 % 1007,6 hPa 0,0 mm 3,5 km/h (1 Bft) NO 0,00 h 11,0 klux 75 W/m 4,4 C 9,5 C
20/12/2004 10:00 9,8 C 70 % 1008,6 hPa 0,0 mm 0,2 km/h (0 Bft) N-NE 0,00 h 12,6 klux 86 W/m 4,6 C 9,8 C
20/12/2004 11:00 10,6 C 70 % 1009,8 hPa 0,0 mm 1,5 km/h (1 Bft) N-NE 0,00 h 15,0 klux 103 W/m 5,3 C 10,6 C
20/12/2004 12:00 11,3 C 68 % 1009,7 hPa 0,0 mm 2,8 km/h (1 Bft) N 0,75 h 23,4 klux 160 W/m 5,5 C 11,3 C
20/12/2004 13:00 11,9 C 61 % 1009,7 hPa 0,0 mm 1,5 km/h (1 Bft) N-NE 1,00 h 49,2 klux 337 W/m 4,6 C 11,9 C
20/12/2004 14:00 14,4 C 47 % 1010,0 hPa 0,0 mm 12,0 km/h (2 Bft) E 1,00 h 62,4 klux 427 W/m 3,2 C 11,8 C
20/12/2004 15:00 13,5 C 50 % 1010,8 hPa 0,0 mm 16,0 km/h (3 Bft) SO 1,00 h 32,5 klux 222 W/m 3,2 C 9,1 C
20/12/2004 16:00 11,4 C 56 % 1011,8 hPa 0,0 mm 19,3 km/h (3 Bft) O 0,25 h 4,90 klux 34 W/m 3,0 C 5,5 C
20/12/2004 17:00 10,0 C 60 % 1012,7 hPa 0,0 mm 15,6 km/h (3 Bft) O 0,00 h 166 lux 0 W/m 2,7 C 5,0 C
20/12/2004 18:00 9,3 C 62 % 1013,5 hPa 0,0 mm 9,4 km/h (2 Bft) O-NO 0,00 h 0 lux 0 W/m 2,4 C 7,2 C
20/12/2004 19:00 8,2 C 65 % 1014,4 hPa 0,0 mm 3,0 km/h (1 Bft) E 0,00 h 0 lux 0 W/m 1,9 C 8,2 C
20/12/2004 20:00 7,8 C 60 % 1015,2 hPa 0,0 mm 0,3 km/h (0 Bft) N-NE 0,00 h 0 lux 0 W/m 0,5 C 7,8 C
20/12/2004 21:00 8,1 C 64 % 1015,7 hPa 0,0 mm 8,1 km/h (2 Bft) NO 0,00 h 0 lux 0 W/m 1,8 C 6,9 C
20/12/2004 22:00 8,3 C 64 % 1016,2 hPa 0,0 mm 4,6 km/h (1 Bft) NO 0,00 h 0 lux 0 W/m 1,9 C 8,3 C
20/12/2004 23:00 7,5 C 65 % 1017,0 hPa 0,0 mm 0,2 km/h (0 Bft) O 0,00 h 0 lux 0 W/m 1,3 C 7,5 C
21/12/2004 00:00 7,6 C 61 % 1017,3 hPa 0,0 mm 1,5 km/h (1 Bft) O-SO 0,00 h 0 lux 0 W/m 0,4 C 7,6 C
21/12/2004 01:00 8,0 C 51 % 1017,2 hPa 0,0 mm 0,0 km/h (0 Bft) NO 0,00 h 0 lux 0 W/m -1,6 C 8,0 C
21/12/2004 02:00 7,7 C 54 % 1017,2 hPa 0,0 mm 6,2 km/h (2 Bft) O 0,00 h 0 lux 0 W/m -1,2 C 6,3 C
21/12/2004 03:00 7,5 C 70 % 1018,0 hPa 0,0 mm 16,2 km/h (3 Bft) O-SO 0,00 h 0 lux 0 W/m 2,4 C 1,6 C
21/12/2004 04:00 7,2 C 74 % 1017,3 hPa 0,0 mm 13,3 km/h (3 Bft) O-SO 0,00 h 0 lux 0 W/m 2,8 C 2,7 C
21/12/2004 05:00 6,9 C 76 % 1017,6 hPa 0,0 mm 4,4 km/h (1 Bft) SO 0,00 h 0 lux 0 W/m 2,9 C 6,0 C
21/12/2004 06:00 6,8 C 77 % 1018,4 hPa 0,0 mm 0,7 km/h (0 Bft) O 0,00 h 0 lux 0 W/m 3,0 C 6,8 C
21/12/2004 07:00 6,0 C 75 % 1018,4 hPa 0,0 mm 0,9 km/h (0 Bft) NE 0,00 h 0 lux 0 W/m 1,9 C 6,0 C
21/12/2004 08:00 6,1 C 72 % 1018,7 hPa 0,0 mm 0,0 km/h (0 Bft) N 0,00 h 939 lux 6 W/m 1,4 C 6,1 C
21/12/2004 09:00 6,2 C 73 % 1019,4 hPa 0,0 mm 0,2 km/h (0 Bft) SO 0,00 h 5,30 klux 36 W/m 1,8 C 6,2 C
21/12/2004 10:00 7,6 C 69 % 1019,6 hPa 0,0 mm 0,2 km/h (0 Bft) N 0,00 h 13,6 klux 93 W/m 2,3 C 7,6 C
21/12/2004 11:00 8,3 C 65 % 1020,3 hPa 0,0 mm 1,3 km/h (1 Bft) E 0,00 h 13,6 klux 93 W/m 2,1 C 8,3 C
21/12/2004 12:00 8,6 C 64 % 1019,2 hPa 0,0 mm 1,1 km/h (0 Bft) NE 0,00 h 16,1 klux 110 W/m 2,1 C 8,6 C
21/12/2004 13:00 9,0 C 63 % 1019,2 hPa 0,0 mm 2,8 km/h (1 Bft) NE 0,25 h 20,8 klux 142 W/m 2,3 C 9,0 C
21/12/2004 14:00 9,3 C 62 % 1019,2 hPa 0,0 mm 4,1 km/h (1 Bft) E-NE 0,25 h 17,8 klux 122 W/m 2,3 C 9,3 C
21/12/2004 15:00 9,6 C 62 % 1019,1 hPa 0,0 mm 2,9 km/h (1 Bft) E-NE 0,25 h 12,3 klux 84 W/m 2,5 C 9,5 C
21/12/2004 16:00 7,9 C 64 % 1019,3 hPa 0,0 mm 1,2 km/h (1 Bft) O 0,00 h 717 lux 5 W/m 1,6 C 7,9 C
21/12/2004 17:00 7,2 C 69 % 1019,3 hPa 0,4 mm 11,3 km/h (2 Bft) O-SO 0,00 h 42 lux 0 W/m 1,9 C 4,2 C
21/12/2004 18:00 6,8 C 71 % 1020,4 hPa 0,0 mm 12,4 km/h (3 Bft) O-NO 0,00 h 0 lux 0 W/m 2,0 C 2,6 C
21/12/2004 19:00 7,0 C 67 % 1020,4 hPa 0,0 mm 12,9 km/h (3 Bft) O-NO 0,00 h 0 lux 0 W/m 1,2 C 2,6 C
21/12/2004 20:00 7,0 C 65 % 1020,4 hPa 0,0 mm 16,7 km/h (3 Bft) O-NO 0,00 h 0 lux 0 W/m 0,9 C 0,7 C
21/12/2004 21:00 6,8 C 65 % 1020,9 hPa 0,0 mm 16,4 km/h (3 Bft) O-NO 0,00 h 0 lux 0 W/m 0,6 C 0,7 C
21/12/2004 22:00 6,5 C 68 % 1021,5 hPa 0,0 mm 14,2 km/h (3 Bft) O 0,00 h 0 lux 0 W/m 1,0 C 1,3 C
21/12/2004 23:00 6,1 C 71 % 1021,5 hPa 0,0 mm 13,1 km/h (3 Bft) O-NO 0,00 h 0 lux 0 W/m 1,2 C 1,5 C
22/12/2004 00:00 5,9 C 72 % 1021,5 hPa 0,0 mm 12,6 km/h (3 Bft) O-NO 0,00 h 0 lux 0 W/m 1,3 C 1,5 C
22/12/2004 01:00 5,6 C 73 % 1021,5 hPa 0,0 mm 12,0 km/h (2 Bft) O 0,00 h 0 lux 0 W/m 1,1 C 1,5 C
22/12/2004 02:00 5,1 C 73 % 1021,6 hPa 0,0 mm 10,5 km/h (2 Bft) O-NO 0,00 h 0 lux 0 W/m 0,6 C 1,9 C
22/12/2004 03:00 4,9 C 70 % 1021,6 hPa 0,0 mm 10,7 km/h (2 Bft) O-NO 0,00 h 0 lux 0 W/m -0,1 C 1,7 C
22/12/2004 04:00 4,1 C 69 % 1022,2 hPa 0,0 mm 8,1 km/h (2 Bft) NO 0,00 h 0 lux 0 W/m -1,0 C 2,7 C
22/12/2004 05:00 3,9 C 69 % 1022,7 hPa 0,0 mm 6,7 km/h (2 Bft) N-NO 0,00 h 0 lux 0 W/m -1,2 C 3,4 C
22/12/2004 06:00 3,8 C 69 % 1022,0 hPa 0,0 mm 4,8 km/h (1 Bft) NO 0,00 h 0 lux 0 W/m -1,3 C 3,6 C
22/12/2004 07:00 3,5 C 71 % 1022,5 hPa 0,0 mm 7,3 km/h (2 Bft) O-NO 0,00 h 47 lux 0 W/m -1,3 C 2,3 C
22/12/2004 08:00 4,4 C 67 % 1022,7 hPa 0,0 mm 3,7 km/h (1 Bft) NO 0,00 h 2,45 klux 17 W/m -1,3 C 4,4 C
22/12/2004 09:00 4,7 C 66 % 1022,6 hPa 0,0 mm 5,4 km/h (1 Bft) O-NO 0,00 h 11,3 klux 78 W/m -1,1 C 4,0 C
22/12/2004 10:00 7,0 C 61 % 1023,5 hPa 0,0 mm 1,6 km/h (1 Bft) O-NO 0,75 h 39,7 klux 272 W/m 0,1 C 7,0 C
22/12/2004 11:00 8,9 C 58 % 1023,3 hPa 0,0 mm 6,8 km/h (2 Bft) S-SO 1,00 h 51,9 klux 355 W/m 0,9 C 7,4 C
22/12/2004 12:00 9,9 C 56 % 1022,4 hPa 0,0 mm 20,1 km/h (4 Bft) SO 1,00 h 56,4 klux 386 W/m 1,4 C 3,3 C
22/12/2004 13:00 10,3 C 53 % 1021,4 hPa 0,0 mm 36,0 km/h (5 Bft) SO 1,00 h 55,3 klux 378 W/m 1,1 C -0,0 C
22/12/2004 14:00 10,2 C 50 % 1021,1 hPa 0,0 mm 38,8 km/h (5 Bft) O-SO 1,00 h 48,4 klux 331 W/m 0,2 C -0,7 C
22/12/2004 15:00 9,7 C 49 % 1020,1 hPa 0,0 mm 30,0 km/h (5 Bft) SO 1,00 h 31,1 klux 213 W/m -0,6 C 0,3 C
22/12/2004 16:00 8,6 C 53 % 1020,2 hPa 0,0 mm 24,5 km/h (4 Bft) SO 0,25 h 12,5 klux 85 W/m -0,6 C 0,1 C
22/12/2004 17:00 6,1 C 60 % 1020,5 hPa 0,0 mm 17,1 km/h (3 Bft) O-SO 0,00 h 243 lux 0 W/m -1,2 C -0,5 C
22/12/2004 18:00 5,2 C 65 % 1020,6 hPa 0,0 mm 15,5 km/h (3 Bft) O-SO 0,00 h 1 lux 0 W/m -0,8 C -0,9 C
22/12/2004 19:00 4,3 C 67 % 1020,6 hPa 0,0 mm 6,9 km/h (2 Bft) NO 0,00 h 0 lux 0 W/m -1,2 C 2,6 C
22/12/2004 20:00 3,9 C 66 % 1020,7 hPa 0,0 mm 1,9 km/h (1 Bft) O 0,00 h 0 lux 0 W/m -1,8 C 3,9 C
22/12/2004 21:00 3,6 C 66 % 1021,0 hPa 0,0 mm 3,3 km/h (1 Bft) O-NO 0,00 h 0 lux 0 W/m -2,2 C 3,6 C
22/12/2004 22:00 3,5 C 65 % 1021,0 hPa 0,0 mm 5,3 km/h (1 Bft) NO 0,00 h 0 lux 0 W/m -2,6 C 3,5 C
22/12/2004 23:00 3,3 C 64 % 1021,5 hPa 0,0 mm 5,8 km/h (2 Bft) N-NO 0,00 h 0 lux 0 W/m -2,8 C 2,8 C
23/12/2004 00:00 3,2 C 64 % 1021,0 hPa 0,0 mm 8,2 km/h (2 Bft) N-NO 0,00 h 0 lux 0 W/m -2,9 C 1,6 C
23/12/2004 01:00 3,3 C 63 % 1020,7 hPa 0,0 mm 7,1 km/h (2 Bft) NO 0,00 h 0 lux 0 W/m -3,1 C 2,3 C
23/12/2004 02:00 3,3 C 62 % 1020,7 hPa 0,0 mm 6,5 km/h (2 Bft) N-NO 0,00 h 0 lux 0 W/m -3,4 C 3,1 C
23/12/2004 03:00 3,3 C 62 % 1020,7 hPa 0,0 mm 8,6 km/h (2 Bft) NO 0,00 h 0 lux 0 W/m -3,3 C 1,2 C
23/12/2004 04:00 3,1 C 62 % 1020,5 hPa 0,0 mm 4,4 km/h (1 Bft) NO 0,00 h 0 lux 0 W/m -3,6 C 3,1 C
23/12/2004 05:00 2,5 C 62 % 1019,8 hPa 0,0 mm 6,9 km/h (2 Bft) O-NO 0,00 h 0 lux 0 W/m -4,1 C 1,9 C
23/12/2004 06:00 2,5 C 62 % 1020,0 hPa 0,0 mm 7,9 km/h (2 Bft) NO 0,00 h 0 lux 0 W/m -4,2 C 1,0 C
23/12/2004 07:00 2,8 C 60 % 1020,5 hPa 0,0 mm 8,3 km/h (2 Bft) NO 0,00 h 98 lux 0 W/m -4,2 C 0,9 C
23/12/2004 08:00 3,5 C 57 % 1020,7 hPa 0,0 mm 8,9 km/h (2 Bft) NO 0,00 h 8,68 klux 59 W/m -4,1 C 1,3 C
23/12/2004 09:00 6,3 C 48 % 1020,7 hPa 0,0 mm 3,6 km/h (1 Bft) NO 0,75 h 28,7 klux 197 W/m -3,9 C 6,3 C
23/12/2004 10:00 8,9 C 48 % 1021,2 hPa 0,0 mm 6,1 km/h (2 Bft) S-SO 1,00 h 43,4 klux 297 W/m -1,7 C 8,1 C
23/12/2004 11:00 10,4 C 50 % 1020,1 hPa 0,0 mm 11,9 km/h (2 Bft) O-SO 1,00 h 51,9 klux 355 W/m 0,3 C 7,3 C
23/12/2004 12:00 11,0 C 48 % 1019,8 hPa 0,0 mm 15,3 km/h (3 Bft) SO 1,00 h 58,8 klux 402 W/m 0,4 C 6,2 C
23/12/2004 13:00 11,2 C 47 % 1019,0 hPa 0,0 mm 13,8 km/h (3 Bft) S 1,00 h 52,2 klux 357 W/m 0,4 C 7,1 C
23/12/2004 14:00 10,6 C 57 % 1018,0 hPa 0,0 mm 14,6 km/h (3 Bft) SO 1,00 h 40,5 klux 277 W/m 2,4 C 6,0 C
23/12/2004 15:00 10,4 C 59 % 1018,0 hPa 0,0 mm 14,5 km/h (3 Bft) S 1,00 h 33,0 klux 226 W/m 2,7 C 5,8 C
23/12/2004 16:00 9,8 C 58 % 1018,1 hPa 0,0 mm 10,8 km/h (2 Bft) S-SO 0,50 h 16,0 klux 109 W/m 2,0 C 7,1 C
23/12/2004 17:00 6,9 C 64 % 1017,3 hPa 0,0 mm 5,6 km/h (1 Bft) O-SO 0,00 h 291 lux 0 W/m 0,4 C 6,9 C
23/12/2004 18:00 5,7 C 68 % 1017,4 hPa 0,0 mm 6,2 km/h (2 Bft) NO 0,00 h 5 lux 0 W/m 0,3 C 5,4 C
23/12/2004 19:00 4,8 C 70 % 1017,5 hPa 0,0 mm 3,9 km/h (1 Bft) NO 0,00 h 0 lux 0 W/m -0,2 C 4,8 C
23/12/2004 20:00 4,9 C 68 % 1017,5 hPa 0,0 mm 4,7 km/h (1 Bft) NO 0,00 h 0 lux 0 W/m -0,5 C 4,2 C
23/12/2004 21:00 4,4 C 69 % 1016,8 hPa 0,0 mm 6,5 km/h (2 Bft) N-NO 0,00 h 0 lux 0 W/m -0,9 C 3,9 C
23/12/2004 22:00 4,3 C 69 % 1016,5 hPa 0,0 mm 6,7 km/h (2 Bft) N-NO 0,00 h 0 lux 0 W/m -0,9 C 4,0 C
23/12/2004 23:00 4,4 C 68 % 1016,5 hPa 0,0 mm 7,2 km/h (2 Bft) N-NO 0,00 h 0 lux 0 W/m -1,1 C 3,4 C
24/12/2004 00:00 4,6 C 67 % 1016,5 hPa 0,0 mm 6,2 km/h (2 Bft) N-NO 0,00 h 0 lux 0 W/m -0,9 C 4,2 C
24/12/2004 01:00 4,8 C 66 % 1016,2 hPa 0,0 mm 3,4 km/h (1 Bft) NO 0,00 h 0 lux 0 W/m -0,9 C 4,8 C
24/12/2004 02:00 4,8 C 66 % 1015,5 hPa 0,0 mm 6,2 km/h (2 Bft) NO 0,00 h 0 lux 0 W/m -1,0 C 4,6 C
24/12/2004 03:00 4,5 C 68 % 1015,5 hPa 0,0 mm 3,9 km/h (1 Bft) NO 0,00 h 0 lux 0 W/m -0,9 C 4,5 C
24/12/2004 04:00 5,7 C 67 % 1015,4 hPa 0,0 mm 6,4 km/h (2 Bft) O-NO 0,00 h 0 lux 0 W/m -0,1 C 5,5 C
24/12/2004 05:00 6,0 C 67 % 1014,8 hPa 0,0 mm 7,3 km/h (2 Bft) NO 0,00 h 0 lux 0 W/m 0,3 C 5,2 C
24/12/2004 06:00 5,7 C 71 % 1014,3 hPa 0,0 mm 11,4 km/h (2 Bft) NO 0,00 h 0 lux 0 W/m 0,8 C 2,0 C
24/12/2004 07:00 5,2 C 73 % 1015,4 hPa 0,0 mm 9,7 km/h (2 Bft) O-NO 0,00 h 44 lux 0 W/m 0,8 C 2,6 C
24/12/2004 08:00 5,7 C 72 % 1015,4 hPa 0,0 mm 9,5 km/h (2 Bft) NO 0,00 h 2,30 klux 16 W/m 1,1 C 2,9 C
24/12/2004 09:00 6,4 C 71 % 1015,3 hPa 0,0 mm 4,1 km/h (1 Bft) N-NO 0,25 h 17,1 klux 117 W/m 1,5 C 5,7 C
24/12/2004 10:00 9,2 C 66 % 1015,6 hPa 0,0 mm 1,0 km/h (0 Bft) SE 1,00 h 35,0 klux 239 W/m 3,1 C 9,2 C
24/12/2004 11:00 10,7 C 63 % 1015,7 hPa 0,0 mm 4,6 km/h (1 Bft) E-SE 1,00 h 60,8 klux 416 W/m 4,0 C 9,6 C
24/12/2004 12:00 12,4 C 60 % 1014,8 hPa 0,0 mm 8,4 km/h (2 Bft) SE 1,00 h 60,8 klux 416 W/m 4,9 C 10,6 C
24/12/2004 13:00 12,7 C 60 % 1014,5 hPa 0,0 mm 9,7 km/h (2 Bft) S 1,00 h 56,6 klux 387 W/m 5,1 C 10,8 C
24/12/2004 14:00 13,4 C 59 % 1013,7 hPa 0,0 mm 7,8 km/h (2 Bft) E-SE 1,00 h 49,9 klux 342 W/m 5,6 C 12,6 C
24/12/2004 15:00 13,1 C 62 % 1013,7 hPa 0,0 mm 4,2 km/h (1 Bft) SE 0,75 h 26,0 klux 178 W/m 5,8 C 12,7 C
24/12/2004 16:00 12,5 C 64 % 1013,7 hPa 0,0 mm 0,0 km/h (0 Bft) SE 0,50 h 11,9 klux 81 W/m 5,9 C 12,5 C
24/12/2004 17:00 10,3 C 69 % 1013,7 hPa 0,0 mm 0,0 km/h (0 Bft) S-SE 0,00 h 239 lux 0 W/m 4,9 C 10,3 C
24/12/2004 18:00 8,6 C 76 % 1014,1 hPa 0,0 mm 0,0 km/h (0 Bft) SE 0,00 h 0 lux 0 W/m 4,6 C 8,6 C
24/12/2004 19:00 7,9 C 79 % 1014,1 hPa 0,0 mm 3,0 km/h (1 Bft) NO 0,00 h 0 lux 0 W/m 4,4 C 7,9 C
24/12/2004 20:00 7,8 C 79 % 1013,7 hPa 0,0 mm 5,5 km/h (1 Bft) NO 0,00 h 0 lux 0 W/m 4,3 C 7,2 C
24/12/2004 21:00 7,6 C 78 % 1013,1 hPa 0,0 mm 4,8 km/h (1 Bft) O-NO 0,00 h 0 lux 0 W/m 4,1 C 7,6 C
24/12/2004 22:00 8,1 C 75 % 1013,1 hPa 0,0 mm 10,0 km/h (2 Bft) NO 0,00 h 0 lux 0 W/m 3,8 C 5,5 C
24/12/2004 23:00 8,6 C 73 % 1013,1 hPa 0,0 mm 8,2 km/h (2 Bft) NO 0,00 h 0 lux 0 W/m 3,9 C 7,0 C
25/12/2004 00:00 8,8 C 69 % 1013,0 hPa 0,0 mm 13,6 km/h (3 Bft) NO 0,00 h 0 lux 0 W/m 3,5 C 4,3 C
25/12/2004 01:00 8,9 C 68 % 1012,0 hPa 0,0 mm 12,9 km/h (3 Bft) NO 0,00 h 0 lux 0 W/m 3,3 C 4,9 C
25/12/2004 02:00 8,2 C 69 % 1012,1 hPa 0,0 mm 12,5 km/h (3 Bft) NO 0,00 h 0 lux 0 W/m 2,8 C 4,2 C
25/12/2004 03:00 7,3 C 71 % 1011,4 hPa 0,0 mm 8,8 km/h (2 Bft) NO 0,00 h 0 lux 0 W/m 2,3 C 5,5 C
25/12/2004 04:00 6,7 C 72 % 1011,2 hPa 0,0 mm 13,1 km/h (3 Bft) O-NO 0,00 h 0 lux 0 W/m 1,9 C 2,2 C
25/12/2004 05:00 6,4 C 72 % 1010,4 hPa 0,0 mm 12,2 km/h (2 Bft) N 0,00 h 0 lux 0 W/m 1,6 C 2,5 C
25/12/2004 06:00 6,7 C 74 % 1010,2 hPa 0,0 mm 2,9 km/h (1 Bft) NO 0,00 h 0 lux 0 W/m 2,3 C 6,7 C
25/12/2004 07:00 7,2 C 72 % 1010,1 hPa 0,0 mm 0,0 km/h (0 Bft) O-NO 0,00 h 0 lux 0 W/m 2,5 C 7,2 C
25/12/2004 08:00 7,3 C 70 % 1010,1 hPa 0,0 mm 1,1 km/h (1 Bft) N 0,00 h 642 lux 4 W/m 2,2 C 7,3 C
25/12/2004 09:00 7,8 C 71 % 1009,8 hPa 0,0 mm 0,0 km/h (0 Bft) SE 0,00 h 4,99 klux 34 W/m 3,0 C 7,8 C
25/12/2004 10:00 8,4 C 71 % 1009,0 hPa 0,0 mm 1,4 km/h (1 Bft) E-SE 0,00 h 5,70 klux 39 W/m 3,5 C 8,4 C
25/12/2004 11:00 7,9 C 79 % 1008,8 hPa 0,3 mm 2,8 km/h (1 Bft) N-NE 0,00 h 6,82 klux 47 W/m 4,4 C 7,8 C
25/12/2004 12:00 8,1 C 82 % 1007,7 hPa 0,0 mm 5,7 km/h (1 Bft) O-NO 0,25 h 16,1 klux 110 W/m 5,1 C 6,8 C
25/12/2004 13:00 9,5 C 82 % 1006,3 hPa 0,4 mm 6,8 km/h (2 Bft) NO 1,00 h 26,4 klux 181 W/m 6,7 C 8,9 C
25/12/2004 14:00 10,2 C 86 % 1005,2 hPa 0,0 mm 2,6 km/h (1 Bft) NE 0,75 h 18,8 klux 128 W/m 7,9 C 10,2 C
25/12/2004 15:00 8,9 C 86 % 1004,8 hPa 1,5 mm 3,9 km/h (1 Bft) N 0,00 h 4,15 klux 28 W/m 6,6 C 8,9 C
25/12/2004 16:00 8,5 C 88 % 1003,8 hPa 0,8 mm 5,2 km/h (1 Bft) N 0,00 h 1,62 klux 11 W/m 6,6 C 7,8 C
25/12/2004 17:00 8,4 C 88 % 1003,1 hPa 0,0 mm 11,1 km/h (2 Bft) NO 0,00 h 42 lux 0 W/m 6,5 C 5,3 C
25/12/2004 18:00 8,4 C 87 % 1001,8 hPa 0,4 mm 8,6 km/h (2 Bft) O-NO 0,00 h 0 lux 0 W/m 6,4 C 6,7 C
25/12/2004 19:00 8,2 C 88 % 1001,3 hPa 0,0 mm 13,1 km/h (3 Bft) NO 0,00 h 0 lux 0 W/m 6,4 C 3,9 C
25/12/2004 20:00 8,0 C 89 % 1000,3 hPa 2,3 mm 4,2 km/h (1 Bft) N-NE 0,00 h 0 lux 0 W/m 6,3 C 7,9 C
25/12/2004 21:00 7,8 C 90 % 999,3 hPa 3,4 mm 8,3 km/h (2 Bft) N-NE 0,00 h 0 lux 0 W/m 6,2 C 6,4 C
25/12/2004 22:00 7,6 C 91 % 998,0 hPa 4,5 mm 13,3 km/h (3 Bft) N-NE 0,00 h 0 lux 0 W/m 6,2 C 3,1 C
25/12/2004 23:00 6,8 C 90 % 997,8 hPa 7,2 mm 13,1 km/h (3 Bft) N-NO 0,00 h 0 lux 0 W/m 5,3 C 2,2 C
26/12/2004 00:00 6,7 C 90 % 996,8 hPa 6,1 mm 7,3 km/h (2 Bft) NO 0,00 h 0 lux 0 W/m 5,2 C 4,9 C
26/12/2004 01:00 6,6 C 91 % 996,1 hPa 6,1 mm 7,0 km/h (2 Bft) N-NE 0,00 h 0 lux 0 W/m 5,2 C 5,2 C
26/12/2004 02:00 6,5 C 91 % 994,8 hPa 4,9 mm 22,1 km/h (4 Bft) N-NE 0,00 h 0 lux 0 W/m 5,2 C -1,8 C
26/12/2004 03:00 6,4 C 91 % 993,3 hPa 0,8 mm 24,3 km/h (4 Bft) N-NE 0,00 h 0 lux 0 W/m 4,9 C -2,8 C
26/12/2004 04:00 6,4 C 89 % 992,2 hPa 0,8 mm 15,9 km/h (3 Bft) NE 0,00 h 0 lux 0 W/m 4,7 C 0,5 C
26/12/2004 05:00 6,3 C 89 % 991,7 hPa 2,7 mm 9,3 km/h (2 Bft) NE 0,00 h 0 lux 0 W/m 4,7 C 4,1 C
26/12/2004 06:00 6,3 C 91 % 991,7 hPa 2,7 mm 8,1 km/h (2 Bft) N-NE 0,00 h 0 lux 0 W/m 4,9 C 5,0 C
26/12/2004 07:00 6,4 C 91 % 991,2 hPa 2,3 mm 17,6 km/h (3 Bft) N-NE 0,00 h 0 lux 0 W/m 5,1 C 0,2 C
26/12/2004 08:00 6,4 C 91 % 990,7 hPa 2,3 mm 21,0 km/h (4 Bft) N-NE 0,00 h 559 lux 4 W/m 5,0 C -1,7 C
26/12/2004 09:00 6,5 C 91 % 990,7 hPa 2,3 mm 18,8 km/h (3 Bft) N-NE 0,00 h 2,20 klux 15 W/m 5,1 C -0,8 C
26/12/2004 10:00 6,6 C 91 % 991,7 hPa 3,0 mm 16,0 km/h (3 Bft) N-NE 0,00 h 4,65 klux 32 W/m 5,2 C 0,7 C
26/12/2004 11:00 7,0 C 90 % 991,7 hPa 1,9 mm 15,2 km/h (3 Bft) N-NE 0,00 h 6,53 klux 45 W/m 5,4 C 1,4 C
26/12/2004 12:00 7,4 C 89 % 991,1 hPa 1,9 mm 12,0 km/h (2 Bft) N-NE 0,00 h 10,4 klux 71 W/m 5,7 C 3,5 C
26/12/2004 13:00 7,3 C 90 % 991,1 hPa 2,7 mm 9,0 km/h (2 Bft) N-NE 0,00 h 7,68 klux 53 W/m 5,6 C 5,3 C
26/12/2004 14:00 7,6 C 90 % 990,6 hPa 1,1 mm 7,3 km/h (2 Bft) N 0,00 h 8,59 klux 59 W/m 6,1 C 6,8 C
26/12/2004 15:00 7,6 C 90 % 990,8 hPa 0,0 mm 3,9 km/h (1 Bft) N-NE 0,00 h 4,17 klux 29 W/m 6,1 C 7,5 C
26/12/2004 16:00 7,4 C 89 % 991,6 hPa 0,8 mm 4,6 km/h (1 Bft) N-NE 0,00 h 1,53 klux 10 W/m 5,8 C 7,0 C
26/12/2004 17:00 7,2 C 90 % 991,7 hPa 0,4 mm 0,5 km/h (0 Bft) N 0,00 h 78 lux 0 W/m 5,6 C 7,2 C
26/12/2004 18:00 6,8 C 91 % 992,7 hPa 0,4 mm 0,2 km/h (0 Bft) N 0,00 h 0 lux 0 W/m 5,4 C 6,8 C
26/12/2004 19:00 6,8 C 91 % 992,7 hPa 0,0 mm 2,2 km/h (1 Bft) N-NO 0,00 h 0 lux 0 W/m 5,4 C 6,8 C
26/12/2004 20:00 7,1 C 88 % 993,2 hPa 0,0 mm 7,9 km/h (2 Bft) N-NO 0,00 h 0 lux 0 W/m 5,3 C 5,8 C
26/12/2004 21:00 6,8 C 87 % 993,7 hPa 0,0 mm 0,6 km/h (0 Bft) E-SE 0,00 h 0 lux 0 W/m 4,7 C 6,8 C
26/12/2004 22:00 6,4 C 88 % 993,8 hPa 0,0 mm 2,3 km/h (1 Bft) N-NO 0,00 h 0 lux 0 W/m 4,5 C 6,4 C
26/12/2004 23:00 6,6 C 87 % 994,5 hPa 0,0 mm 3,0 km/h (1 Bft) SE 0,00 h 0 lux 0 W/m 4,6 C 6,6 C
Min-Date _ 23/12/04 20/12/04 26/12/04 - 20/12/04 - - - - 23/12/04 26/12/04
_ Min-Heure 05:45 14:30 14:45 - 00:15 - - - - 07:45 03:15
Minimum _ 2,3 C 44 % 990,6 hPa - 0,0 km/h (0 Bft) - - - - -4,5 C -3,4 C
Max-Date _ 20/12/04 25/12/04 22/12/04 25/12/04 22/12/04 - 20/12/04 20/12/04 20/12/04 25/12/04 24/12/04
_ Max-Heure 14:30 22:15 10:15 22:00 14:15 - 13:00 14:15 14:15 14:30 14:15
Maximum _ 15,0 C 91 % 1023,5 hPa 7,2 mm 42,0 km/h
O-SO (6 Bft)
- 1,00 h 67,8 klux 464 W/m 8,2 C 13,6 C
Moyenne _ 7,4 C 71 % 1011,8 hPa #64,0 mm 7,9 km/h (2 Bft) NO #26:30 h 8,41 klux 153 W/m 2,2 C 5,4 C

Moyenne Minimum Temp.7,0 C
Moyenne Maximum Temp.7,8 C
Roquefort les pins